Temp
-6 -5 -6 -7 -6 -7 -8 -8 -7 -8 -8 -8 -7 -7 -7 -7 -7 -7 -6 -6 -6 -6 -5 -5 -5 -5 -5 -5 -6 -6 -6 -6 -6 -5 -5 -5 -5 -5 -5 -5 -5 -5 -5 -5 -6 -6 -6 -6 -6
-5 -5 -6 -7 -8 -7 -7 -8 -7 -8 -8 -7 -7 -7 -7 -7 -7 -6 -6 -6 -6 -6 -5 -5 -5 -5 -5 -5 -5 -6 -5 -6 -6 -5 -5 -5 -5 -5 -6 -5 -5 -5 -5 -5 -5 -5 -6 -6 -6
-5 -6 -6 -7 -7 -6 -7 -8 -8 -8 -8 -7 -7 -7 -7 -6 -7 -6 -6 -6 -6 -6 -5 -5 -5 -5 -5 -5 -5 -5 -5 -5 -5 -5 -5 -5 -5 -5 -5 -5 -5 -5 -5 -5 -5 -6 -6 -6 -7
-6 -5 -5 -6 -6 -6 -7 -7 -8 -8 -8 -8 -7 -7 -6 -6 -7 -6 -6 -6 -6 -5 -5 -5 -5 -5 -5 -5 -5 -5 -5 -5 -5 -5 -5 -5 -5 -5 -5 -5 -5 -5 -5 -5 -6 -6 -6 -6 -7
-5 -5 -5 -5 -5 -7 -7 -7 -8 -7 -7 -7 -7 -7 -6 -6 -7 -6 -6 -6 -5 -5 -5 -5 -5 -5 -5 -6 -6 -5 -6 -5 -5 -5 -5 -5 -5 -5 -5 -5 -5 -5 -5 -5 -6 -6 -6 -6 -6
-5 -5 -6 -5 -5 -6 -7 -7 -6 -7 -7 -7 -7 -7 -7 -6 -6 -6 -6 -6 -5 -5 -5 -5 -5 -5 -5 -6 -6 -6 -6 -5 -5 -5 -5 -5 -5 -5 -5 -5 -5 -5 -6 -6 -5 -6 -6 -6 -6
-5 -6 -5 -4 -4 -6 -6 -5 -6 -7 -6 -6 -6 -6 -6 -6 -6 -6 -6 -5 -5 -5 -5 -5 -5 -5 -5 -6 -6 -6 -6 -6 -5 -5 -5 -5 -5 -5 -6 -6 -5 -5 -6 -6 -5 -5 -6 -7 -7
-5 -5 -4 -4 -4 -5 -6 -6 -6 -6 -6 -6 -6 -6 -6 -6 -5 -6 -6 -6 -5 -5 -5 -5 -5 -5 -5 -6 -6 -6 -6 -6 -6 -6 -6 -6 -5 -6 -6 -6 -6 -6 -6 -6 -6 -6 -6 -6 -7
-5 -5 -6 -5 -4 -4 -5 -6 -6 -5 -5 -5 -6 -5 -6 -5 -5 -5 -5 -5 -5 -5 -5 -5 -5 -5 -5 -6 -6 -6 -6 -6 -6 -6 -6 -6 -6 -6 -6 -6 -6 -6 -6 -6 -6 -6 -6 -6 -7
-5 -5 -5 -5 -5 -4 -5 -5 -5 -5 -5 -4 -4 -5 -5 -5 -5 -5 -5 -5 -5 -5 -5 -5 -5 -5 -5 -6 -6 -6 -6 -6 -6 -6 -6 -6 -6 -6 -6 -6 -6 -6 -6 -6 -6 -6 -6 -7 -6
-4 -5 -3 -5 -5 -5 -5 -5 -5 -5 -4 -4 -4 -4 -4 -5 -5 -4 -4 -5 -5 -5 -5 -5 -5 -5 -5 -5 -5 -6 -6 -6 -6 -6 -6 -6 -6 -6 -6 -6 -6 -6 -6 -6 -6 -6 -6 -6 -7
-4 -5 -4 -5 -6 -4 -5 -6 -5 -5 -5 -4 -3 -3 -4 -4 -4 -4 -4 -4 -5 -5 -5 -5 -5 -5 -5 -5 -6 -5 -5 -6 -6 -6 -6 -6 -6 -6 -6 -6 -6 -6 -6 -6 -6 -6 -7 -6 -7
-4 -4 -4 -4 -3 -5 -5 -5 -5 -4 -4 -4 -3 -3 -4 -4 -4 -4 -4 -4 -4 -5 -4 -5 -5 -5 -5 -5 -5 -5 -6 -5 -5 -5 -6 -6 -6 -6 -6 -6 -6 -6 -7 -7 -7 -6 -6 -6 -6
-4 -4 -4 -4 -4 -5 -6 -6 -5 -4 -4 -4 -4 -3 -3 -3 -4 -4 -5 -4 -4 -4 -4 -4 -4 -4 -5 -5 -5 -5 -5 -6 -6 -6 -6 -6 -6 -6 -6 -6 -6 -6 -7 -7 -7 -6 -6 -7 -7
-3 -4 -4 -4 -4 -5 -5 -5 -6 -5 -5 -4 -4 -4 -3 -3 -3 -4 -4 -5 -5 -5 -5 -5 -4 -4 -5 -5 -5 -5 -5 -5 -5 -6 -6 -6 -6 -6 -6 -6 -6 -6 -7 -7 -7 -7 -6 -6 -7
-5 -4 -4 -5 -5 -4 -5 -5 -5 -5 -5 -4 -4 -4 -4 -4 -4 -4 -4 -4 -4 -4 -4 -5 -5 -5 -5 -5 -5 -5 -5 -5 -5 -5 -5 -5 -6 -6 -6 -6 -6 -6 -6 -7 -7 -7 -7 -7 -6
-5 -6 -6 -5 -6 -5 -5 -5 -5 -4 -5 -6 -5 -5 -5 -5 -5 -5 -5 -5 -5 -5 -5 -5 -5 -5 -5 -5 -5 -5 -5 -5 -5 -5 -5 -5 -5 -6 -6 -6 -6 -7 -6 -7 -7 -7 -7 -6 -7
-5 -6 -6 -6 -5 -5 -6 -5 -5 -5 -5 -5 -5 -5 -5 -6 -6 -5 -5 -5 -5 -5 -5 -5 -5 -5 -6 -5 -6 -6 -6 -5 -5 -5 -6 -5 -6 -6 -6 -6 -6 -7 -6 -7 -6 -6 -6 -6 -6
-5 -6 -5 -6 -5 -5 -5 -5 -5 -5 -5 -5 -5 -5 -5 -6 -5 -5 -5 -4 -4 -5 -5 -5 -5 -5 -5 -5 -5 -5 -6 -6 -6 -6 -6 -6 -6 -6 -6 -6 -6 -7 -7 -7 -7 -6 -6 -6 -6
-6 -6 -5 -5 -5 -5 -5 -5 -5 -5 -5 -5 -5 -5 -5 -5 -5 -5 -5 -4 -4 -4 -5 -5 -5 -5 -5 -5 -5 -5 -5 -5 -6 -6 -6 -6 -6 -6 -6 -6 -6 -7 -7 -6 -7 -6 -7 -6 -7
-5 -5 -5 -5 -5 -4 -5 -5 -5 -5 -5 -4 -4 -4 -4 -4 -4 -5 -5 -5 -4 -4 -4 -5 -5 -5 -5 -5 -5 -5 -6 -6 -6 -6 -7 -8 -7 -7 -7 -7 -7 -7 -7 -7 -6 -7 -7 -7 -7
-5 -5 -6 -5 -5 -4 -4 -4 -5 -5 -5 -4 -4 -4 -4 -4 -4 -4 -4 -4 -4 -4 -4 -4 -4 -4 -5 -5 -5 -5 -6 -7 -7 -6 -7 -8 -8 -7 -7 -7 -7 -7 -7 -7 -7 -7 -7 -7 -7
-5 -5 -6 -5 -5 -5 -4 -4 -4 -5 -5 -4 -4 -4 -4 -4 -4 -4 -4 -4 -4 -4 -4 -4 -4 -4 -4 -3 -4 -6 -6 -6 -6 -7 -7 -7 -7 -8 -7 -8 -8 -7 -7 -7 -7 -7 -8 -7 -7
-6 -6 -6 -6 -5 -5 -5 -5 -4 -5 -4 -4 -4 -5 -5 -5 -4 -4 -4 -4 -4 -4 -4 -4 -4 -5 -5 -5 -5 -5 -5 -6 -6 -7 -8 -8 -7 -7 -8 -8 -8 -7 -7 -7 -7 -7 -7 -8 -8
-6 -6 -6 -6 -6 -6 -6 -5 -4 -4 -4 -3 -3 -4 -5 -6 -6 -5 -4 -4 -4 -3 -4 -4 -4 -5 -5 -5 -6 -5 -5 -6 -6 -6 -7 -7 -8 -8 -8 -8 -8 -8 -8 -7 -7 -7 -7 -7 -7
-6 -6 -6 -6 -6 -6 -6 -6 -5 -4 -4 -3 -3 -4 -4 -4 -4 -5 -5 -4 -3 -4 -4 -4 -5 -5 -5 -4 -5 -6 -6 -7 -7 -7 -8 -8 -8 -8 -8 -8 -7 -8 -8 -7 -7 -7 -7 -7 -7
-6 -6 -6 -7 -7 -6 -6 -6 -5 -5 -4 -4 -3 -3 -4 -4 -4 -4 -4 -3 -4 -4 -4 -4 -4 -5 -4 -4 -5 -6 -6 -7 -7 -7 -8 -8 -8 -8 -9 -8 -8 -8 -7 -7 -7 -7 -7 -7 -7
-6 -6 -7 -7 -6 -7 -6 -6 -5 -4 -4 -4 -4 -3 -3 -4 -4 -4 -4 -4 -5 -5 -4 -4 -4 -4 -4 -4 -5 -6 -6 -7 -7 -7 -9 -9 -7 -7 -9 -8 -8 -7 -7 -8 -7 -7 -7 -7 -8
-7 -7 -7 -6 -6 -6 -6 -5 -5 -5 -4 -4 -4 -3 -4 -5 -4 -4 -5 -4 -5 -5 -4 -4 -4 -4 -4 -4 -6 -6 -6 -7 -8 -9 -9 -10 -9 -8 -9 -9 -9 -8 -8 -8 -7 -8 -8 -7 -8
-7 -7 -7 -6 -6 -6 -5 -4 -5 -5 -5 -5 -4 -4 -4 -5 -6 -6 -5 -5 -5 -5 -4 -4 -4 -5 -4 -5 -5 -6 -6 -7 -8 -9 -10 -9 -8 -8 -9 -10 -10 -8 -9 -8 -9 -8 -8 -9 -9
Height
5897 5898 5899 5897 5899 5893 5891 5890 5890 5890 5891 5891 5893 5896 5897 5897 5898 5902 5900 5900 5900 5901 5902 5900 5901 5902 5902 5902 5903 5902 5903 5903 5904 5906 5905 5906 5905 5905 5905 5905 5904 5904 5902 5902 5901 5900 5901 5901 5901
5902 5900 5900 5898 5898 5896 5895 5892 5890 5890 5890 5891 5892 5895 5897 5898 5899 5901 5901 5901 5902 5903 5904 5903 5903 5903 5903 5905 5905 5906 5907 5907 5908 5909 5908 5907 5907 5908 5908 5908 5906 5906 5905 5905 5903 5903 5904 5903 5903
5903 5903 5902 5900 5899 5899 5897 5894 5893 5892 5893 5893 5894 5896 5897 5900 5900 5902 5903 5903 5905 5906 5907 5906 5906 5905 5905 5906 5906 5908 5910 5910 5911 5912 5911 5911 5911 5911 5910 5909 5909 5909 5909 5909 5908 5908 5907 5906 5905
5905 5905 5904 5903 5901 5902 5899 5896 5895 5895 5895 5896 5897 5898 5900 5902 5904 5904 5905 5906 5908 5908 5908 5907 5907 5907 5908 5908 5909 5910 5910 5911 5913 5913 5913 5913 5914 5913 5913 5912 5912 5913 5914 5914 5912 5912 5911 5909 5908
5906 5905 5907 5904 5905 5902 5901 5900 5899 5898 5897 5898 5899 5899 5902 5905 5906 5905 5906 5908 5910 5910 5909 5909 5910 5910 5910 5911 5911 5912 5913 5914 5915 5915 5915 5916 5917 5916 5915 5915 5915 5917 5918 5917 5916 5914 5914 5911 5911
5909 5909 5908 5909 5907 5905 5903 5904 5903 5902 5901 5901 5902 5901 5903 5906 5908 5908 5909 5910 5911 5911 5911 5911 5911 5911 5912 5912 5912 5913 5915 5917 5918 5918 5917 5919 5919 5918 5918 5918 5919 5920 5920 5920 5919 5918 5917 5915 5914
5912 5911 5909 5909 5910 5909 5909 5908 5905 5905 5906 5907 5908 5907 5907 5906 5909 5910 5911 5911 5912 5911 5911 5911 5911 5913 5913 5914 5914 5915 5917 5919 5920 5920 5920 5921 5921 5921 5920 5920 5921 5922 5921 5921 5922 5921 5921 5918 5916
5914 5914 5913 5911 5910 5912 5912 5909 5908 5908 5910 5911 5911 5911 5911 5910 5910 5912 5911 5911 5913 5912 5912 5913 5913 5914 5915 5915 5916 5918 5919 5921 5922 5923 5922 5923 5922 5922 5921 5921 5923 5923 5922 5922 5922 5922 5922 5920 5919
5916 5915 5913 5911 5913 5912 5911 5909 5913 5913 5913 5913 5915 5914 5913 5912 5911 5912 5912 5914 5913 5914 5914 5914 5915 5916 5916 5916 5917 5919 5920 5922 5923 5924 5924 5924 5924 5922 5922 5923 5924 5924 5923 5923 5924 5924 5924 5922 5921
5916 5915 5914 5913 5916 5913 5912 5913 5915 5915 5915 5915 5916 5916 5915 5915 5914 5913 5914 5914 5915 5915 5915 5915 5916 5917 5918 5919 5919 5920 5921 5922 5924 5925 5926 5925 5924 5923 5922 5923 5924 5924 5923 5924 5924 5925 5923 5923 5923
5917 5917 5917 5917 5916 5915 5915 5918 5916 5917 5917 5917 5917 5918 5917 5916 5916 5915 5916 5916 5915 5916 5916 5917 5918 5919 5920 5920 5920 5921 5922 5922 5922 5924 5926 5926 5925 5923 5923 5923 5923 5924 5925 5925 5925 5925 5924 5923 5922
5921 5920 5917 5917 5915 5913 5917 5920 5918 5917 5917 5918 5918 5918 5917 5917 5917 5916 5916 5917 5918 5918 5918 5918 5918 5919 5920 5920 5920 5921 5921 5922 5923 5924 5925 5925 5924 5923 5923 5923 5923 5924 5925 5925 5926 5926 5925 5925 5923
5925 5922 5921 5920 5920 5917 5918 5920 5921 5920 5918 5919 5919 5919 5918 5917 5916 5916 5915 5917 5918 5919 5919 5919 5919 5920 5920 5920 5921 5921 5920 5921 5921 5923 5924 5923 5923 5923 5922 5922 5922 5924 5924 5924 5924 5925 5926 5925 5924
5924 5926 5924 5922 5920 5920 5917 5921 5920 5924 5921 5921 5920 5918 5918 5918 5916 5917 5915 5915 5916 5918 5920 5920 5920 5920 5920 5920 5920 5921 5920 5920 5920 5921 5922 5921 5921 5921 5921 5920 5920 5921 5923 5922 5921 5921 5923 5924 5924
5923 5923 5923 5922 5923 5921 5920 5923 5924 5923 5923 5923 5921 5921 5919 5917 5916 5917 5917 5917 5917 5917 5917 5918 5919 5920 5920 5920 5920 5920 5920 5919 5919 5918 5919 5920 5919 5918 5918 5919 5918 5918 5920 5920 5920 5919 5921 5921 5922
5922 5922 5924 5924 5924 5924 5924 5920 5924 5922 5922 5924 5921 5920 5920 5919 5919 5920 5920 5919 5919 5919 5919 5918 5917 5917 5918 5919 5918 5918 5919 5918 5917 5916 5916 5916 5916 5916 5915 5916 5916 5916 5917 5917 5918 5917 5918 5919 5919
5926 5927 5926 5926 5926 5926 5926 5922 5920 5919 5921 5924 5922 5920 5921 5921 5921 5920 5920 5921 5921 5920 5919 5918 5918 5918 5917 5916 5915 5914 5915 5916 5916 5915 5914 5913 5912 5912 5912 5912 5913 5913 5914 5914 5914 5914 5915 5914 5915
5929 5928 5927 5927 5928 5928 5926 5923 5922 5921 5922 5924 5922 5920 5919 5921 5922 5922 5922 5921 5921 5920 5918 5917 5916 5917 5917 5916 5915 5913 5911 5911 5911 5911 5910 5909 5908 5908 5909 5910 5911 5910 5909 5910 5911 5910 5910 5909 5909
5931 5931 5929 5928 5927 5928 5926 5926 5926 5926 5925 5925 5924 5922 5920 5920 5920 5920 5919 5920 5918 5917 5916 5914 5912 5912 5913 5912 5912 5911 5910 5906 5904 5905 5906 5905 5905 5904 5904 5906 5905 5904 5903 5902 5903 5905 5906 5904 5904
5932 5931 5931 5931 5930 5929 5929 5931 5930 5930 5929 5927 5926 5925 5924 5920 5920 5920 5919 5917 5915 5914 5912 5911 5909 5909 5909 5909 5909 5909 5908 5907 5904 5901 5899 5899 5899 5898 5897 5897 5899 5898 5897 5895 5894 5898 5899 5898 5897
5932 5931 5933 5934 5932 5932 5931 5931 5931 5931 5931 5929 5928 5925 5924 5921 5921 5921 5919 5917 5916 5912 5909 5907 5907 5908 5907 5905 5905 5904 5902 5899 5898 5897 5894 5893 5892 5891 5889 5888 5889 5891 5891 5890 5890 5890 5891 5891 5891
5930 5932 5932 5933 5932 5933 5933 5932 5930 5931 5931 5930 5929 5926 5924 5923 5923 5922 5921 5918 5916 5913 5911 5908 5907 5904 5902 5900 5898 5896 5895 5894 5892 5890 5889 5887 5885 5883 5881 5879 5878 5878 5881 5882 5882 5882 5884 5885 5886
5932 5931 5931 5931 5930 5934 5933 5933 5931 5929 5929 5929 5928 5925 5923 5923 5922 5923 5921 5919 5918 5915 5912 5909 5906 5903 5900 5897 5894 5893 5891 5888 5886 5884 5881 5879 5877 5876 5872 5869 5868 5868 5869 5871 5871 5870 5872 5875 5876
5932 5933 5933 5931 5932 5932 5931 5931 5930 5928 5928 5928 5927 5924 5923 5924 5922 5920 5919 5917 5915 5912 5909 5907 5904 5901 5897 5895 5892 5888 5885 5882 5879 5875 5872 5870 5870 5869 5864 5862 5861 5860 5860 5862 5863 5862 5861 5860 5862
5935 5935 5935 5934 5931 5931 5929 5927 5926 5926 5924 5925 5925 5922 5922 5920 5918 5916 5915 5913 5910 5907 5904 5901 5898 5896 5892 5889 5886 5881 5878 5874 5872 5867 5864 5861 5863 5860 5857 5854 5853 5853 5851 5851 5853 5851 5850 5850 5853
5933 5934 5934 5932 5931 5929 5927 5925 5924 5921 5921 5921 5921 5920 5919 5917 5913 5912 5910 5909 5906 5902 5898 5894 5891 5888 5884 5880 5875 5871 5866 5863 5861 5858 5854 5851 5854 5848 5847 5845 5844 5844 5845 5840 5842 5839 5843 5842 5842
5931 5932 5933 5931 5928 5926 5924 5922 5921 5919 5918 5916 5915 5914 5912 5910 5909 5907 5903 5899 5897 5895 5891 5889 5884 5882 5878 5872 5866 5860 5856 5851 5848 5845 5839 5838 5836 5836 5833 5834 5833 5835 5839 5837 5836 5834 5834 5832 5835
5929 5930 5930 5928 5926 5924 5921 5919 5918 5917 5915 5914 5912 5911 5909 5907 5904 5901 5897 5894 5891 5888 5885 5883 5879 5873 5868 5861 5855 5849 5844 5837 5833 5828 5826 5827 5821 5817 5820 5822 5824 5826 5826 5826 5823 5823 5824 5821 5823
5928 5927 5924 5923 5923 5920 5918 5917 5915 5914 5913 5911 5910 5909 5906 5903 5900 5896 5893 5890 5886 5882 5877 5872 5867 5861 5856 5849 5842 5835 5828 5823 5818 5814 5811 5810 5812 5803 5810 5807 5814 5817 5818 5820 5819 5818 5816 5816 5816
5924 5923 5921 5920 5921 5918 5916 5915 5911 5911 5909 5907 5904 5902 5901 5898 5894 5890 5886 5882 5879 5874 5869 5864 5859 5851 5845 5839 5832 5824 5816 5811 5806 5801 5799 5799 5799 5799 5796 5797 5806 5807 5810 5813 5812 5811 5811 5808 5809
Wind_Speed
9 17 16 17 9 18 13 13 15 9 7 12 11 13 11 15 10 7 8 7 5 2 3 4 5 6 7 10 11 10 7 8 10 9 8 9 11 11 10 11 12 11 13 15 15 15 13 14 16
14 12 18 18 15 16 20 11 7 10 11 14 14 15 14 14 12 9 9 8 5 3 2 4 3 5 7 10 10 9 8 9 9 7 7 9 10 9 7 8 11 15 14 13 13 14 15 14 16
17 11 13 20 13 24 16 14 9 8 8 13 22 16 14 15 13 12 11 8 6 4 4 4 4 6 6 9 8 7 9 11 11 8 8 11 11 8 8 7 9 14 16 14 14 15 16 15 17
16 14 16 21 17 20 17 13 10 14 13 14 18 15 13 12 12 13 9 9 8 5 4 3 5 5 7 7 7 7 8 9 8 8 10 12 11 10 10 9 7 10 16 17 15 15 14 13 16
8 10 16 24 19 24 19 17 10 11 16 15 15 15 12 12 13 12 10 10 11 4 5 4 4 5 6 7 6 6 6 7 7 8 11 12 10 11 10 10 9 9 13 14 14 12 14 10 12
6 11 9 15 21 23 21 18 17 14 15 13 14 16 13 9 12 10 11 11 10 6 5 5 5 5 6 6 5 5 5 5 5 7 11 12 11 12 12 11 11 11 10 10 12 13 13 12 12
7 12 17 18 16 24 17 19 19 18 12 15 14 13 11 10 11 10 9 8 7 7 6 6 5 5 5 5 5 5 5 5 4 8 9 9 9 10 10 10 10 10 8 8 10 12 13 13 12
3 2 12 15 19 17 18 19 17 16 13 11 13 10 9 7 6 11 9 8 6 7 6 5 5 5 4 5 4 3 3 3 4 7 7 7 7 8 8 8 10 7 7 6 8 8 9 11 11
5 10 9 5 12 17 19 20 13 14 15 13 10 10 9 7 4 6 6 6 5 6 6 5 5 5 4 6 5 4 2 1 4 4 5 6 5 7 7 6 9 6 5 6 7 7 9 9 13
6 8 5 8 15 18 19 16 12 11 12 13 14 9 6 4 4 2 5 8 6 6 5 5 5 6 5 5 4 3 2 1 2 3 5 5 5 5 7 5 7 5 5 6 7 8 7 7 19
10 9 12 8 9 13 17 13 13 11 9 10 13 13 10 5 1 2 5 6 5 7 7 7 7 5 5 5 3 1 0 1 1 1 4 6 7 7 8 9 6 3 3 2 5 7 7 8 13
9 9 7 8 12 15 16 13 13 11 10 6 5 14 13 8 4 2 4 5 5 5 5 5 3 4 4 4 4 3 2 2 4 4 4 7 8 8 8 9 13 5 4 2 2 4 5 6 8
3 4 3 9 7 13 14 12 14 11 9 7 4 5 12 11 9 6 4 3 6 4 2 2 2 1 1 3 3 4 4 5 5 5 7 8 9 10 9 10 11 8 4 4 5 5 4 7 7
10 2 3 8 9 5 12 13 14 9 12 9 8 6 6 10 9 8 7 5 4 3 2 1 1 2 3 4 4 6 7 7 9 10 10 11 12 11 11 11 9 8 5 10 7 6 7 6 6
6 3 4 4 7 8 11 13 8 6 11 10 13 8 8 8 7 7 7 3 1 1 3 6 7 5 5 6 7 8 9 11 13 14 14 15 15 14 13 13 11 10 7 9 7 8 8 10 9
5 5 1 11 13 2 11 6 13 10 6 7 10 14 13 10 8 7 5 3 1 1 1 1 5 7 7 8 9 10 12 14 15 16 18 17 16 16 16 14 13 13 11 10 12 12 12 12 10
9 12 15 14 22 17 19 16 10 8 15 11 10 13 12 10 8 7 8 7 7 7 7 7 7 8 9 10 11 13 13 15 16 18 20 20 20 20 18 17 16 16 16 13 16 18 17 16 14
17 17 17 17 16 14 15 11 15 12 10 6 3 7 5 6 6 5 5 8 7 7 7 6 5 5 7 10 10 12 16 16 16 17 20 21 22 22 22 20 18 20 20 19 20 21 20 19 18
10 11 17 18 19 18 19 12 17 16 12 11 9 10 13 11 9 8 11 11 7 10 6 8 8 9 9 10 11 9 10 15 18 21 22 22 22 23 24 23 21 20 22 23 23 22 22 25 23
9 7 7 13 16 17 20 19 16 17 17 16 19 18 15 12 13 11 12 13 11 9 13 15 10 12 13 18 16 17 16 18 17 21 24 26 25 25 27 27 26 23 23 26 27 24 27 25 23
8 8 6 11 15 14 18 17 18 16 13 13 15 14 13 12 13 11 10 10 12 13 13 16 11 14 16 17 17 19 17 22 22 18 21 25 26 27 27 29 28 28 29 30 31 30 29 28 27
9 6 9 8 8 8 10 13 17 13 9 9 12 12 12 13 12 10 9 10 10 13 13 13 16 16 18 22 23 23 24 22 23 22 22 28 32 30 31 31 31 32 32 35 36 35 34 33 29
6 11 7 5 3 8 6 8 12 10 7 5 8 8 9 9 9 12 10 9 9 11 12 14 18 17 13 21 29 29 28 29 26 27 33 37 32 34 34 30 30 33 35 36 38 35 35 39 41
8 13 10 3 3 5 4 5 6 5 6 5 9 9 6 3 5 12 12 11 11 14 16 17 19 21 22 26 30 33 34 34 35 33 35 30 30 29 29 31 30 31 30 33 32 36 44 46 40
11 5 2 4 4 4 5 3 4 1 8 7 11 9 7 6 7 10 13 15 16 20 23 26 28 28 29 31 31 34 35 37 37 37 38 36 34 34 29 26 26 29 32 34 28 29 36 35 42
5 5 7 8 4 5 5 7 7 10 11 9 9 9 7 5 11 13 15 16 19 23 27 30 32 31 34 40 38 36 38 38 38 42 43 44 40 38 31 26 26 28 29 32 32 30 36 44 29
7 1 8 6 10 13 13 15 13 16 15 15 12 12 13 14 16 18 23 27 29 30 32 33 37 37 40 43 38 37 38 39 41 44 47 43 52 46 25 21 17 17 41 35 34 38 38 33 26
5 8 8 12 16 17 20 22 20 19 18 18 18 14 15 19 22 24 27 30 33 35 36 35 37 41 44 47 39 43 42 41 42 46 46 46 52 37 31 24 20 21 21 23 29 36 39 34 34
9 12 14 19 19 20 25 25 24 23 23 23 21 17 20 23 25 28 31 31 34 36 39 41 43 46 48 48 44 43 41 39 40 42 41 44 51 43 27 26 19 23 26 21 17 15 30 43 49
17 20 23 22 18 20 25 20 24 24 26 27 28 27 27 28 32 36 36 36 38 39 41 43 45 49 49 47 46 43 41 37 33 36 35 38 48 50 34 24 27 25 27 24 19 15 15 14 19
Wind_Direction
70 90 68 57 68 19 17 4 34 49 104 132 142 149 140 150 150 166 163 152 145 138 113 92 87 92 106 124 122 103 95 86 89 96 108 90 81 69 67 68 72 63 53 59 63 65 62 71 71
106 83 56 53 57 28 31 38 31 39 80 121 145 144 151 162 155 180 178 153 140 155 134 96 86 81 104 117 109 102 103 91 95 113 95 80 74 56 56 64 69 63 56 59 62 64 59 60 55
79 78 56 42 55 37 37 40 70 76 83 98 110 127 154 170 176 185 170 163 151 151 141 139 111 94 106 100 98 93 91 89 99 105 83 74 59 48 53 48 60 57 51 55 52 59 60 60 65
98 81 62 52 57 43 51 58 80 109 108 114 120 126 120 123 153 151 151 167 144 148 152 124 107 100 102 95 90 90 93 90 88 76 63 59 45 57 52 36 40 54 45 48 55 58 64 59 49
85 67 71 55 49 53 62 65 100 119 121 124 115 118 126 129 133 117 117 136 168 152 138 126 101 90 99 98 92 97 99 93 83 65 56 52 54 44 38 41 40 51 49 53 57 61 66 61 55
78 67 76 46 49 51 63 69 89 120 126 130 131 132 131 129 126 135 139 149 167 152 124 97 105 100 107 112 114 110 100 94 78 59 53 50 48 40 43 46 49 54 53 62 55 55 60 49 44
157 89 62 53 61 64 71 77 84 81 116 139 137 132 135 144 139 154 152 148 144 137 123 106 115 102 106 123 138 135 121 107 76 61 59 54 46 38 34 33 46 52 60 54 51 54 56 51 48
45 57 73 68 56 67 76 74 64 85 95 133 144 150 158 165 144 145 148 134 127 126 122 118 109 94 95 113 131 130 130 111 78 59 49 42 31 30 26 29 31 43 40 37 39 50 55 40 27
68 97 115 107 66 70 70 71 73 82 96 101 138 153 168 172 167 128 97 93 100 120 119 126 106 90 95 122 133 132 126 89 66 53 37 32 23 16 38 21 11 21 11 27 25 23 28 31 14
129 91 70 77 70 56 61 69 66 70 81 83 92 107 135 197 232 156 108 98 92 92 83 94 101 98 90 104 126 130 131 52 35 38 29 16 354 354 350 0 10 2 339 9 13 28 8 2 354
123 106 78 112 117 66 53 60 61 61 78 103 111 113 115 113 43 301 113 105 98 96 82 73 72 81 99 109 116 105 208 324 322 349 9 350 355 340 340 325 313 337 344 324 0 8 355 353 4
129 111 66 50 82 82 89 68 64 74 74 61 85 111 104 94 82 7 57 88 73 66 66 71 97 129 138 149 160 180 216 297 301 298 324 328 335 332 344 347 358 300 337 324 330 13 354 355 359
220 115 300 205 52 78 84 64 40 47 63 60 51 72 105 103 86 90 62 107 115 105 79 75 23 339 214 196 211 208 225 245 243 270 289 298 307 321 324 326 349 5 289 289 300 315 0 341 328
240 185 153 180 103 34 44 35 9 51 55 63 50 39 60 100 91 81 59 37 47 45 348 286 283 281 284 265 257 255 247 246 266 270 271 276 285 298 305 304 323 336 324 289 293 306 333 324 314
217 252 119 112 358 345 27 58 45 35 42 49 71 62 56 55 69 93 109 118 97 70 324 330 329 325 307 291 283 269 262 265 266 266 268 274 280 284 287 290 302 304 277 269 277 282 302 304 304
83 225 26 17 35 329 344 293 91 70 67 59 78 70 62 66 68 72 81 106 215 160 254 316 312 314 309 293 283 281 278 272 269 271 272 270 271 273 279 281 285 288 290 266 259 268 281 284 287
83 91 90 78 64 79 55 68 49 44 97 87 83 83 77 78 77 81 91 93 70 70 65 48 10 340 321 308 303 294 282 276 274 276 275 273 275 275 272 273 275 273 272 265 257 267 278 287 283
91 91 80 75 72 78 64 68 49 60 82 48 79 78 85 79 71 62 66 79 69 33 10 17 11 348 334 324 304 286 290 290 289 282 279 278 275 273 270 268 266 264 267 263 265 269 277 280 273
105 95 97 93 92 91 77 94 67 93 60 65 67 67 74 46 23 11 6 1 27 8 352 311 292 297 297 303 283 279 287 303 299 295 290 284 277 277 275 269 261 259 263 264 264 268 270 271 275
144 145 148 106 99 111 98 101 89 86 91 91 92 86 85 79 61 44 40 35 29 18 5 350 330 313 312 325 315 285 282 291 292 296 294 289 279 275 275 274 270 261 256 261 263 258 261 266 267
169 179 109 100 96 121 113 107 96 94 91 92 86 90 86 78 72 61 55 30 13 3 5 3 350 331 330 339 334 322 321 327 308 294 290 284 279 276 273 273 273 273 267 260 261 264 263 262 262
190 163 101 155 98 108 128 114 114 105 79 92 88 83 74 69 80 70 61 31 17 10 10 354 342 325 312 312 328 324 312 322 315 305 298 291 283 282 274 272 274 273 273 268 263 261 261 264 255
95 113 77 38 0 179 114 108 126 122 50 64 73 80 65 36 43 76 50 32 9 351 352 338 341 331 315 310 309 311 310 306 303 298 297 300 277 282 271 276 276 278 272 267 278 264 263 266 258
101 107 131 120 135 169 128 110 121 107 16 57 104 105 86 71 12 29 24 14 3 352 347 345 341 331 319 305 302 303 301 297 296 296 295 294 281 285 272 266 280 279 274 269 270 278 266 274 255
140 118 205 227 232 251 343 329 17 263 352 41 103 95 65 36 44 6 351 347 349 345 341 341 341 338 327 316 301 295 292 289 286 284 284 284 276 277 271 271 275 272 268 268 271 266 267 270 257
222 254 233 246 230 253 288 297 320 315 332 10 54 57 54 17 0 340 332 331 338 339 337 338 335 331 324 322 314 300 296 292 290 285 279 274 262 264 262 263 268 260 267 273 273 261 267 268 269
209 253 218 254 272 271 284 292 297 305 318 336 7 7 4 356 341 334 335 334 337 335 333 331 329 330 328 325 317 307 301 296 288 279 276 274 270 260 239 250 254 245 252 248 253 250 252 243 241
230 246 235 246 259 261 279 291 293 303 314 319 327 346 350 340 333 333 331 331 332 326 323 322 326 327 329 327 315 312 306 296 283 275 268 268 267 243 227 227 238 262 253 252 246 236 248 245 240
239 254 263 259 260 264 269 277 285 295 298 303 310 329 334 330 326 325 323 325 322 321 322 324 329 327 330 329 324 317 311 303 284 272 269 267 268 251 217 211 222 236 237 245 255 254 253 251 253
261 257 275 285 286 299 274 276 280 289 289 301 309 316 320 323 322 319 317 320 321 321 322 324 326 327 330 329 326 321 317 310 296 275 263 265 268 265 233 194 215 229 233 236 236 236 242 248 259